EST,Max TemperatureF,Mean TemperatureF,Min TemperatureF,Max Dew PointF,MeanDew PointF,Min DewpointF,Max Humidity, Mean Humidity, Min Humidity, Max Sea Level PressureIn, Mean Sea Level PressureIn, Min Sea Level PressureIn, Max VisibilityMiles, Mean VisibilityMiles, Min VisibilityMiles, Max Wind SpeedMPH, Mean Wind SpeedMPH, Max Gust SpeedMPH,PrecipitationIn, CloudCover, Events, WindDirDegrees
2010-1-1,24,16,9,18,15,3,86,80,60,30.27,30.14,30.07,10,5,2,15,8,,0.00,7,Snow,296
2010-1-2,17,10,3,8,4,-4,84,70,54,30.39,30.33,30.27,10,9,4,14,8,,0.00,6,Snow,331
2010-1-3,21,10,0,15,6,-5,83,71,60,30.38,30.33,30.24,10,10,6,21,11,26,0.00,2,,337
2010-1-4,27,24,21,21,18,16,81,76,66,30.23,30.13,30.06,10,6,2,20,15,25,0.00,8,Snow,331
2010-1-5,30,27,24,25,21,19,88,78,69,30.12,30.08,30.04,10,9,2,17,10,23,0.00,8,Rain-Snow,324
2010-1-6,30,26,23,25,23,19,93,86,75,30.16,30.11,30.07,10,4,0,10,8,,0.03,8,Rain-Snow,260
2010-1-7,23,20,17,20,15,12,93,84,74,30.13,29.96,29.86,10,3,0,10,5,,0.16,8,Fog-Snow,94
2010-1-8,21,20,18,18,15,9,86,80,68,30.37,30.09,29.89,10,6,1,16,9,,0.01,8,Snow,340
2010-1-9,21,12,3,13,6,-2,92,79,58,30.51,30.43,30.31,10,8,0,6,2,,0.00,4,Fog,344
2010-1-10,23,18,12,16,9,2,84,72,52,30.47,30.38,30.18,10,10,8,17,8,22,0.00,4,,225
2010-1-11,28,22,15,23,16,5,86,76,64,30.31,30.13,30.02,10,7,2,14,10,,0.00,8,Snow,303
2010-1-12,26,18,10,20,15,6,91,79,71,30.48,30.40,30.31,10,10,8,10,6,,0.00,5,,309
2010-1-13,35,25,15,21,17,12,88,73,56,30.34,30.19,30.09,10,9,4,17,10,25,0.00,0,,198
2010-1-14,39,32,24,32,25,18,86,76,67,30.12,30.06,29.99,10,8,6,14,10,22,0.00,6,,202
2010-1-15,36,34,32,31,28,24,89,79,67,30.30,30.22,30.09,10,6,2,12,6,,0.00,8,,304
2010-1-16,30,29,28,27,25,24,93,83,76,30.28,30.19,30.03,9,6,3,12,7,,0.00,8,,220
2010-1-17,33,28,24,26,24,21,100,87,69,30.05,29.87,29.78,7,3,0,9,2,,0.00,6,Fog,285
2010-1-18,30,29,28,28,28,27,100,91,85,30.00,29.93,29.85,4,2,0,12,7,,0.00,8,Fog,256
2010-1-19,35,32,30,28,26,23,93,79,64,30.03,29.98,29.93,10,7,3,12,6,,0.00,8,,266
2010-1-20,30,26,23,25,19,15,80,71,64,30.09,30.06,30.00,10,10,10,14,7,,0.00,4,,72
2010-1-21,36,28,21,22,19,15,78,65,50,30.08,29.94,29.83,10,10,10,16,11,23,0.00,5,,82
2010-1-22,34,30,27,28,24,20,82,75,64,30.09,29.98,29.85,10,7,5,9,6,16,0.00,8,,54
2010-1-23,39,36,33,36,32,27,93,84,78,30.08,29.95,29.70,8,5,1,13,6,21,0.00,8,,119
2010-1-24,50,44,36,46,40,33,93,85,76,29.66,29.38,29.29,10,8,2,20,11,30,0.24,7,Rain,174
2010-1-25,36,31,26,32,25,19,87,78,69,29.46,29.33,29.26,10,7,2,18,12,26,0.01,8,Snow,236
2010-1-26,27,23,19,23,18,12,86,78,71,30.03,29.76,29.49,10,6,2,20,14,24,0.00,8,Snow,240
2010-1-27,25,20,15,19,13,8,86,76,60,30.16,30.07,30.01,10,5,1,17,13,24,0.00,7,Snow,234
2010-1-28,24,17,10,18,8,2,85,72,62,30.51,30.25,30.01,10,4,0,22,15,30,0.00,8,Snow,304
2010-1-29,19,12,6,5,3,0,83,66,47,30.56,30.49,30.40,10,10,8,5,1,,0.00,5,,49
2010-1-30,21,11,1,5,2,-4,80,66,48,30.40,30.29,30.21,10,10,10,5,1,,0.00,1,,180
2010-1-31,26,16,5,13,9,1,84,67,53,30.31,30.21,30.15,10,10,8,18,6,24,0.00,6,,253